Theta_e
318 318 319 319 319 320 321 321 322 322 321 322 322 323 323 323 323 323 323 323 324 324 324 324 325 325 325 325 325 325 324 322 322 318 314 318 328 337 336 335 333 334 330 318 319 312 309 310 309 311 312 315 315 311 318 315 315 312 302 298 295 296 296 300 299 301 301 298 299 302 303 301 299 303 305 304 303 302 303 303 305 306 306 308 309 309 313 316
318 318 318 319 318 319 320 321 321 321 321 321 321 322 322 322 322 323 323 323 323 323 324 324 325 325 325 325 325 325 322 324 318 316 315 333 336 337 337 335 335 332 329 318 312 309 309 308 309 309 310 308 321 310 314 312 315 306 300 299 294 299 300 303 302 302 299 299 301 301 302 301 301 301 304 300 300 300 300 302 303 303 304 307 308 309 315 315
318 318 318 318 318 319 320 320 320 321 321 321 321 321 321 322 322 322 322 323 323 323 323 324 325 325 325 325 325 324 323 325 318 311 323 332 339 339 339 337 333 332 320 316 313 312 309 309 310 308 308 304 309 307 313 309 309 305 301 295 297 302 303 304 304 304 305 303 302 301 301 301 302 302 304 300 299 300 299 299 300 301 302 304 305 307 308 313
319 318 318 318 318 319 319 320 320 320 320 321 321 321 321 321 322 322 322 322 322 322 323 323 324 324 324 324 325 322 324 327 314 314 326 336 339 339 339 337 332 330 323 317 315 313 312 311 308 309 308 304 306 310 306 309 305 305 301 296 300 301 299 301 304 304 304 303 302 301 301 300 302 302 303 301 298 299 301 303 302 302 302 303 304 305 307 306
318 318 318 318 318 318 319 320 320 321 321 321 321 321 321 321 321 322 322 322 322 322 323 323 324 324 324 325 323 325 324 306 309 321 326 337 337 341 338 336 333 323 319 318 314 313 312 308 307 310 308 300 304 304 303 306 306 307 301 303 303 303 300 303 303 303 304 304 303 301 300 300 304 303 301 301 297 297 300 303 304 305 305 304 305 305 305 305
319 318 318 318 317 318 319 320 320 321 321 321 321 321 321 321 321 321 321 321 321 321 322 323 323 323 324 324 322 325 317 293 312 323 335 338 340 340 338 335 332 322 316 315 312 312 310 307 306 305 302 300 299 297 301 305 308 299 302 303 304 304 301 304 304 304 302 303 301 300 302 302 301 300 302 301 301 303 306 306 306 307 307 308 307 306 305 305
319 318 317 317 317 319 319 320 320 321 321 321 322 321 321 321 321 321 321 321 321 321 321 322 322 322 323 323 323 317 311 307 322 334 335 339 338 338 336 334 331 326 317 312 310 310 308 305 305 302 301 300 301 300 302 302 304 302 299 301 302 303 301 303 302 303 303 302 302 303 303 300 300 297 301 300 303 304 305 306 306 307 307 307 307 306 305 305
319 318 317 317 319 320 319 320 320 320 321 321 321 321 321 321 321 321 321 321 321 321 321 321 322 322 322 321 324 315 312 306 320 333 332 337 335 332 330 327 321 323 315 310 309 307 308 304 303 306 301 298 300 300 302 302 302 300 300 303 303 302 302 303 302 302 302 302 303 302 301 301 301 300 301 301 303 305 305 306 306 306 306 306 305 305 304 304
318 318 318 319 320 319 319 319 320 320 320 321 321 321 321 322 321 321 321 321 321 321 321 321 321 322 322 319 316 305 304 324 321 334 336 333 327 326 324 316 317 314 312 311 310 310 311 305 305 305 299 300 303 300 301 299 296 300 300 300 301 301 303 302 301 301 301 302 302 300 300 301 302 303 300 301 303 305 305 305 305 305 304 304 304 303 303 303
319 318 319 320 319 318 318 318 319 320 320 321 321 321 321 321 321 321 321 321 321 320 320 321 321 321 316 320 314 300 320 315 332 332 334 330 324 321 320 324 314 313 311 310 310 309 307 307 310 309 307 302 304 301 302 300 298 302 300 300 299 300 300 301 300 301 301 300 300 298 299 300 301 300 295 301 303 304 303 302 303 302 302 303 303 303 303 303
320 318 319 320 318 318 318 318 318 319 320 320 321 321 321 321 321 321 321 320 320 320 320 320 322 319 315 315 306 303 320 328 328 329 330 327 321 317 318 325 315 314 312 312 309 311 310 309 316 311 310 301 302 300 300 301 302 301 300 299 299 300 300 300 300 300 300 299 301 300 298 300 300 300 297 300 303 303 302 303 302 302 302 302 303 303 303 303
319 319 320 319 318 318 318 318 318 319 320 320 320 321 321 321 321 320 320 320 320 320 320 320 321 318 316 312 305 311 315 323 328 325 323 323 323 324 323 318 316 320 314 309 313 318 317 316 315 307 298 304 297 301 299 299 301 299 298 294 296 298 297 299 299 300 300 299 300 300 297 294 296 295 300 302 304 303 302 302 302 302 303 302 303 303 302 301
319 319 319 319 318 318 318 318 319 320 320 320 320 321 321 321 320 320 319 319 319 320 320 320 319 319 319 306 308 321 317 322 325 323 324 321 319 318 320 321 319 316 316 313 313 313 316 314 313 304 306 303 300 296 302 300 300 300 298 295 294 295 294 300 301 300 299 299 299 297 286 290 296 299 301 302 301 301 300 300 301 302 303 303 303 302 301 302
320 319 319 319 318 319 319 319 320 321 321 321 321 321 321 320 320 319 319 319 319 319 320 320 320 318 314 303 313 316 316 320 323 321 322 323 317 320 320 321 320 318 319 318 317 313 317 310 314 307 308 302 299 307 300 299 301 294 297 296 291 290 290 299 301 297 297 298 298 298 288 290 296 299 302 303 301 301 299 299 300 301 302 302 302 300 301 302
320 319 320 320 320 320 320 321 321 321 322 322 322 321 321 320 319 319 319 320 320 319 319 320 318 317 304 303 313 314 320 316 314 317 322 316 315 316 317 315 319 318 313 313 315 314 311 315 313 304 300 305 304 299 295 295 296 296 291 288 292 289 292 299 301 297 295 296 298 295 288 290 295 298 301 301 301 301 299 300 300 301 302 302 301 300 299 302
320 320 320 321 321 321 321 320 321 322 323 322 322 321 321 319 318 319 319 320 320 320 319 316 315 318 306 300 316 320 318 311 310 316 314 317 319 316 315 315 316 317 313 308 311 312 308 314 302 301 300 302 297 293 292 291 292 295 291 290 290 292 293 295 300 298 299 296 296 295 289 293 293 297 299 301 300 300 299 300 300 301 301 301 300 300 300 301
320 320 320 321 321 321 321 321 320 321 322 321 322 322 319 317 319 319 320 319 319 319 319 315 314 310 298 309 308 309 307 314 313 317 316 314 316 316 313 312 309 310 312 310 313 313 308 304 306 301 304 296 296 297 288 287 289 291 294 290 294 292 293 291 299 301 299 296 292 294 291 291 295 297 299 300 300 300 299 300 300 300 300 299 299 300 300 302
321 321 321 321 321 322 321 321 321 321 322 322 321 322 318 319 320 319 316 319 322 319 318 320 313 309 301 307 302 304 312 309 318 315 315 312 316 315 311 306 308 307 308 304 310 301 304 300 300 294 297 296 295 292 287 285 290 290 292 292 293 294 293 293 293 298 297 295 293 292 292 292 294 297 298 300 301 300 299 300 300 300 299 299 300 302 302 301
321 321 320 321 322 321 321 321 322 322 322 322 324 319 320 320 320 320 318 315 313 309 302 301 304 297 299 305 307 309 316 313 314 315 308 311 317 314 314 312 310 303 301 299 299 300 301 300 302 295 291 293 293 293 292 293 295 294 294 293 293 291 291 292 297 299 298 296 294 293 292 294 294 296 298 299 301 300 300 300 300 300 298 299 301 301 300 300
322 322 322 322 322 322 321 321 322 322 322 320 322 320 317 314 311 307 309 311 304 306 306 306 306 306 306 308 308 310 316 316 306 313 312 317 311 311 306 306 308 307 300 297 298 298 301 293 290 289 293 296 298 298 297 297 297 296 295 294 292 292 293 296 297 298 299 294 292 293 292 292 294 295 297 299 300 299 299 299 300 299 300 301 300 299 300 299
322 322 322 322 321 321 322 322 323 322 321 320 320 317 308 306 304 303 305 308 311 309 307 309 310 308 307 311 310 308 307 305 307 309 314 317 315 305 301 303 301 297 298 301 298 301 302 292 293 296 297 298 299 300 299 298 297 295 293 292 292 292 291 295 296 298 297 293 291 293 292 292 294 297 298 299 298 298 299 298 298 299 299 300 299 299 298 299
322 322 322 322 321 322 322 322 322 322 321 321 319 312 310 308 310 311 308 303 313 315 315 314 315 312 315 315 311 314 309 305 304 309 314 314 307 301 301 301 298 295 300 300 297 295 293 290 295 298 300 300 300 299 299 296 295 295 292 291 290 291 294 296 297 298 295 293 289 292 290 292 295 297 298 298 298 299 299 299 298 298 297 298 298 298 297 297
321 322 322 322 321 323 323 323 322 322 320 319 317 314 310 311 315 315 311 305 302 310 310 310 310 311 311 310 310 309 304 302 303 306 306 311 304 303 303 298 297 298 302 299 294 293 289 293 297 300 300 298 298 298 297 296 295 291 291 288 287 292 290 287 294 294 295 293 290 291 291 292 295 297 297 299 299 298 300 300 299 298 296 296 296 296 295 295
322 321 322 322 322 322 323 322 322 321 321 318 316 312 314 315 315 314 307 301 302 309 312 313 311 311 310 306 307 307 303 305 306 304 309 308 301 305 303 300 298 298 296 298 296 295 294 299 302 300 299 298 296 296 295 292 291 293 293 291 290 291 292 292 292 295 295 295 295 292 290 290 294 294 295 298 299 298 298 298 297 297 298 298 297 296 295 294
322 321 321 322 321 321 321 320 319 321 321 317 317 314 314 316 312 314 306 301 303 303 311 311 313 312 307 314 313 304 306 307 307 306 309 311 303 301 300 304 300 296 298 299 298 296 296 300 301 298 298 297 296 293 294 294 290 291 294 294 294 294 292 294 294 292 288 288 292 291 283 285 291 294 296 299 297 294 295 295 294 295 295 295 294 294 295 294
321 321 321 320 321 321 322 317 319 322 318 316 313 314 314 314 315 313 305 297 293 304 305 302 312 301 313 302 310 308 305 299 302 308 311 310 308 303 301 298 300 295 298 299 297 297 297 299 299 298 297 296 295 293 294 296 290 288 290 296 297 295 294 293 292 289 282 281 291 293 283 281 290 291 295 297 294 292 294 293 293 294 294 294 293 293 293 293
322 321 321 321 321 321 317 314 318 320 314 314 317 315 316 315 318 312 302 295 291 304 301 301 303 304 309 304 307 307 292 296 307 308 307 309 303 311 297 297 299 299 299 300 294 291 297 296 294 296 296 294 293 291 295 295 290 287 294 295 295 294 292 292 292 289 286 290 292 292 290 282 283 289 295 297 292 291 291 292 292 293 293 293 293 292 292 292
321 321 320 321 321 319 320 321 320 317 313 315 318 315 315 315 316 311 300 285 286 306 300 299 302 309 308 301 306 299 296 301 297 299 304 308 307 303 299 297 297 297 297 296 285 296 296 293 294 294 293 290 291 295 298 298 292 291 293 294 293 292 292 291 289 286 286 284 282 286 290 282 282 289 295 295 289 289 289 290 291 292 292 292 292 292 291 291
316 316 318 320 321 320 320 320 318 316 314 315 314 312 312 314 309 303 294 283 299 302 309 297 310 306 304 302 299 299 297 298 294 299 306 306 307 301 294 297 296 296 297 296 290 295 297 296 297 298 293 290 295 291 295 298 293 295 294 295 294 293 293 291 285 285 284 283 280 285 289 281 283 290 291 293 290 288 289 290 291 291 291 291 291 291 291 291
313 313 315 317 319 318 318 318 317 314 313 313 311 311 312 308 304 294 288 282 302 293 302 300 301 297 298 295 295 297 295 297 299 299 301 299 302 305 299 298 296 295 294 296 294 295 294 295 297 296 294 297 290 292 293 295 294 294 296 293 290 290 288 287 286 285 283 278 281 287 290 287 279 287 290 290 292 290 290 290 290 290 290 290 290 290 290 290
311 312 314 317 317 319 318 313 317 313 312 310 311 311 310 306 295 288 283 292 300 301 302 300 296 301 295 294 292 296 298 296 296 298 295 300 297 298 298 294 299 292 288 288 288 293 294 295 294 295 300 296 295 292 293 294 294 293 288 286 287 285 285 285 283 283 278 278 283 288 290 290 280 282 290 290 292 292 291 290 290 289 289 290 290 290 290 289
310 310 311 316 317 317 315 313 312 313 311 311 313 311 308 292 297 286 286 301 292 297 297 296 299 298 296 298 297 294 292 294 296 295 293 292 292 292 291 290 290 285 284 284 285 290 288 290 294 298 297 297 293 290 291 292 292 290 287 285 282 280 282 278 280 275 278 278 282 284 288 284 284 288 292 292 292 292 292 293 291 289 288 289 289 290 289 289
309 309 311 314 314 317 317 313 313 311 311 313 312 309 299 290 283 292 292 295 293 300 297 301 297 296 299 297 296 296 295 293 294 294 296 297 295 294 298 295 297 292 284 287 285 285 288 293 293 294 295 297 296 286 286 284 286 287 284 281 281 277 276 273 277 280 280 283 283 284 287 281 287 289 292 291 291 291 291 291 290 289 289 288 288 288 288 288
307 310 311 311 313 315 312 311 310 311 311 311 309 302 296 285 286 297 295 295 298 300 300 297 294 296 297 294 298 295 292 296 293 292 295 293 292 290 294 297 297 296 294 288 284 286 281 281 290 292 290 295 294 293 292 293 286 287 289 287 282 281 277 273 277 274 275 279 283 285 281 279 279 284 289 291 290 290 290 289 289 289 288 288 288 287 287 286
306 309 312 313 312 315 313 312 311 313 314 309 304 296 287 287 289 290 291 295 299 298 296 298 297 295 295 295 298 296 296 293 296 294 292 292 291 291 292 293 298 297 295 286 289 286 288 286 294 297 294 294 293 296 298 295 289 290 290 292 286 282 287 282 283 282 281 281 281 281 280 283 286 290 290 290 290 289 289 288 288 287 288 287 286 286 285 285
307 309 311 309 311 315 314 312 312 314 312 306 298 290 287 291 288 295 294 303 300 297 295 298 297 294 292 292 297 295 300 294 295 293 292 292 294 291 295 297 295 296 290 286 289 283 286 283 292 296 294 293 292 295 297 298 283 287 288 283 286 291 290 284 284 286 284 283 280 286 284 287 292 290 289 289 288 288 288 288 287 287 286 286 285 285 284 285
306 308 304 308 311 315 314 313 312 312 310 304 295 288 294 295 300 300 301 299 297 299 296 290 292 292 291 290 291 295 295 296 292 291 287 294 289 294 294 296 301 297 296 294 288 293 284 286 294 292 291 293 291 293 293 294 295 286 282 286 291 293 291 285 279 281 280 277 278 283 280 282 281 278 288 287 286 286 286 286 286 286 285 284 284 284 284 284
304 304 305 305 311 315 314 313 313 310 306 300 292 294 300 295 302 300 302 301 300 301 295 292 293 297 291 291 291 294 295 291 292 291 288 293 287 297 295 294 296 296 297 298 290 290 293 283 290 292 294 292 293 293 291 295 294 289 287 292 284 281 281 283 281 275 276 275 277 280 282 282 284 284 286 285 285 285 286 286 285 285 284 284 284 284 284 283
303 304 301 306 314 315 313 314 312 307 301 295 292 291 298 299 302 302 301 300 301 299 294 296 294 296 295 291 294 294 293 288 293 290 287 290 286 295 295 297 294 295 295 296 290 292 292 281 284 292 293 293 292 290 282 286 290 292 292 286 292 285 283 281 282 281 282 276 277 277 281 277 287 285 287 287 286 286 286 285 285 285 285 285 284 284 283 283
301 298 297 309 314 314 314 313 307 303 298 291 294 294 301 296 300 302 301 300 298 297 295 295 298 294 296 294 295 291 294 294 292 291 292 293 291 296 293 299 294 293 294 295 294 296 284 291 280 288 290 293 282 287 283 287 283 283 283 282 286 285 287 286 283 281 279 277 276 276 274 279 286 289 287 287 287 287 286 285 284 285 285 285 284 284 284 284
302 298 298 308 313 314 313 308 301 296 295 298 299 297 298 296 300 300 301 302 301 303 298 296 296 293 295 293 293 296 292 292 292 290 292 292 291 286 296 295 297 294 297 296 293 292 284 286 282 285 285 283 287 294 293 292 291 289 288 283 285 283 282 278 277 286 281 278 276 277 275 282 288 291 290 288 288 288 287 286 285 284 284 284 285 285 284 284
297 289 296 308 312 313 307 297 297 300 297 294 294 297 295 302 299 300 300 302 300 299 302 298 299 296 295 294 295 294 292 291 292 290 292 289 294 292 296 297 297 298 292 287 289 295 291 287 283 281 284 286 290 293 296 295 294 292 292 287 290 287 284 279 276 280 282 281 282 280 278 280 287 289 288 288 288 288 287 286 285 285 285 284 284 284 284 284
294 291 303 308 311 309 303 295 298 296 295 297 302 301 301 301 299 300 299 300 296 299 298 296 296 295 297 296 296 294 294 290 292 290 292 291 293 295 296 297 299 297 296 290 294 293 293 285 283 284 288 290 292 294 294 293 293 290 290 289 285 283 285 280 279 278 275 277 277 276 275 280 287 289 287 287 287 287 287 286 285 285 285 284 284 284 284 283
296 298 299 308 311 308 299 289 289 292 294 298 298 298 302 300 299 297 297 299 297 297 295 296 298 298 295 298 295 292 295 286 291 291 288 293 290 297 297 296 297 293 294 290 287 293 284 284 284 280 280 280 281 285 286 287 288 284 282 286 287 286 286 284 282 283 279 281 280 277 272 279 288 285 288 287 287 287 287 287 286 285 284 284 283 283 283 282
297 301 300 303 307 305 294 297 294 293 294 294 295 294 296 298 301 300 299 297 300 298 296 295 297 298 295 297 294 295 295 292 286 292 291 290 291 294 294 296 296 292 294 295 295 291 285 283 281 277 274 272 272 273 273 277 283 285 286 285 286 285 284 281 277 279 277 282 282 279 277 284 287 287 289 288 287 289 290 289 288 287 285 284 283 283 282 281
293 286 296 296 301 300 299 301 298 296 293 293 292 295 296 294 298 301 300 298 300 299 298 297 297 297 294 293 291 291 290 294 289 285 287 286 288 290 292 295 294 293 293 294 292 292 283 285 284 282 280 278 280 280 284 285 282 280 281 281 282 283 283 282 281 278 276 279 278 280 281 281 283 286 287 287 284 285 284 285 285 285 284 284 283 282 281 281
295 288 292 287 297 296 295 298 296 296 291 296 289 294 292 294 295 297 301 293 298 297 296 296 295 292 292 292 290 290 291 290 292 290 288 286 289 289 294 292 292 290 292 290 293 287 283 281 282 281 281 283 284 284 286 286 282 283 281 281 283 282 280 279 279 278 281 278 274 282 282 279 280 283 285 284 284 286 286 286 284 283 283 282 282 281 284 281
285 290 296 298 292 287 290 291 296 295 296 296 291 295 292 292 292 289 296 298 298 297 291 293 294 294 293 291 290 285 287 288 288 285 288 286 287 289 288 292 289 290 290 289 292 286 281 277 280 281 279 283 284 284 285 284 283 282 282 281 280 282 280 278 279 281 281 276 275 280 281 279 280 283 285 285 285 286 286 286 285 284 283 282 280 280 280 279
292 288 288 295 290 293 293 295 296 295 294 295 292 293 290 291 290 293 292 291 293 290 294 285 289 292 292 293 290 285 286 279 279 284 282 280 281 282 282 286 288 288 288 284 285 286 281 276 279 281 278 279 281 282 283 281 281 281 281 281 282 281 281 280 280 281 280 279 280 280 280 280 282 283 285 285 285 284 283 282 282 281 281 281 280 280 279 280
286 286 285 293 292 288 290 293 294 294 291 294 289 290 291 290 289 293 293 292 286 289 294 289 289 288 287 287 289 284 284 285 281 280 283 280 280 281 280 283 281 283 284 282 285 283 282 275 283 276 274 274 279 280 280 279 280 278 279 280 281 281 281 280 281 281 280 279 280 280 279 279 284 286 284 283 283 283 281 281 281 281 281 280 280 279 279 279
291 290 291 287 286 287 287 289 292 292 290 291 289 290 291 291 290 292 292 294 291 289 291 288 290 287 286 289 289 286 289 283 284 282 284 282 279 283 280 279 285 280 281 277 280 278 280 274 278 275 273 274 277 275 276 276 278 278 278 279 279 278 277 279 278 280 279 277 279 278 277 277 281 281 282 281 281 280 279 280 279 280 278 278 278 277 277 277
291 292 293 289 284 291 284 287 288 289 286 290 290 290 290 290 292 292 287 292 290 292 292 291 290 288 287 285 285 286 288 289 288 288 287 287 287 286 286 285 285 281 279 279 282 276 277 276 274 274 273 274 278 278 276 277 276 274 275 278 280 280 281 281 282 282 281 281 277 275 275 280 279 282 279 280 277 277 277 277 276 276 277 277 277 276 277 277
Wind_Speed
6 6 6 6 6 7 7 7 8 8 8 9 9 9 9 9 10 10 10 10 10 11 11 12 12 12 12 12 12 12 12 4 4 5 6 6 7 6 9 12 11 10 7 3 2 4 4 5 4 3 2 1 2 2 1 1 1 0 1 2 4 5 5 3 4 2 2 3 3 1 1 3 3 1 0 2 3 5 8 10 9 8 10 8 9 7 5 7
5 6 6 6 6 6 7 7 8 8 8 9 9 9 10 10 10 10 10 10 10 11 11 11 12 12 12 12 12 13 9 3 7 8 10 3 13 10 9 10 10 10 6 2 5 5 3 4 4 3 2 2 3 1 3 0 2 2 2 3 5 3 3 6 5 5 4 4 6 5 5 4 5 5 0 3 3 4 7 8 8 10 8 10 12 9 8 8
6 6 6 6 7 7 7 8 8 8 8 9 9 10 10 10 10 10 10 10 11 11 11 12 12 13 13 13 12 12 7 2 6 7 3 6 8 9 8 9 10 9 6 3 4 4 4 3 1 4 3 4 3 2 0 2 2 4 3 4 5 4 5 6 5 4 1 4 5 5 3 5 5 5 3 5 7 4 8 9 7 7 7 7 4 7 9 8
6 7 7 7 7 8 8 9 9 9 9 10 10 10 10 11 11 11 11 12 11 11 12 13 13 13 13 13 12 9 3 3 3 2 1 5 4 7 8 9 10 8 3 7 3 4 4 2 4 3 3 3 3 3 3 2 1 3 4 4 3 3 5 5 8 7 6 4 4 3 4 7 6 5 3 4 6 6 9 9 10 11 8 8 8 10 5 4
7 7 7 7 8 8 9 9 9 10 10 10 10 10 10 11 12 12 12 12 12 11 12 12 13 13 13 13 13 5 4 4 1 1 3 1 5 5 7 8 9 5 5 3 3 4 3 3 3 2 2 3 3 3 4 3 6 2 4 4 5 5 6 7 8 6 3 3 2 4 5 6 5 5 5 4 8 9 6 7 8 13 12 9 10 8 6 7
6 6 7 7 7 8 9 9 9 10 10 10 10 11 11 11 11 12 12 12 12 12 12 12 12 13 14 13 8 3 1 4 2 1 2 3 5 6 6 7 8 4 4 4 3 2 2 4 3 3 2 3 4 5 3 7 7 5 4 7 7 7 9 5 5 1 1 3 5 5 4 5 6 7 6 7 11 9 7 9 13 14 12 12 9 7 8 8
5 6 7 6 6 7 9 9 9 9 9 10 11 11 11 12 12 12 12 12 11 11 12 11 11 13 14 14 4 2 3 5 0 1 4 4 5 6 6 5 4 1 3 4 4 3 4 5 4 3 4 5 7 8 9 7 4 5 6 3 9 10 14 12 9 5 1 4 7 5 5 7 7 12 5 7 9 11 9 9 12 12 11 10 10 8 9 8
3 7 7 6 7 9 8 8 9 10 10 11 11 12 12 12 12 13 12 13 12 11 11 11 10 12 12 5 1 2 3 5 2 3 4 6 6 6 7 3 3 2 4 6 4 5 2 5 5 3 6 6 4 6 4 3 4 4 6 5 8 7 6 5 5 5 6 9 7 5 6 11 8 10 7 12 12 14 11 10 12 13 12 9 10 9 8 8
0 6 8 8 8 8 9 9 10 10 11 12 12 13 13 13 14 14 14 13 13 12 11 10 11 10 7 3 2 4 7 0 1 7 6 6 6 6 6 5 5 5 3 5 5 4 2 3 5 3 5 6 2 5 4 4 6 5 6 4 4 5 7 8 9 7 7 6 4 4 9 10 10 10 13 14 16 14 12 13 13 13 12 10 9 8 8 7
2 6 8 7 7 8 9 9 10 11 12 13 13 13 14 14 14 15 15 14 13 12 11 10 9 10 6 1 2 5 1 2 1 6 6 5 7 6 5 2 8 5 4 5 4 4 4 3 2 3 4 5 4 7 5 6 6 4 4 5 7 7 8 8 11 13 10 9 6 6 8 10 7 3 9 5 9 7 7 5 4 6 7 8 8 9 7 8
5 6 7 7 7 7 9 9 10 11 12 13 13 14 14 14 15 15 14 14 13 12 10 9 6 6 3 2 4 9 1 1 0 3 4 5 6 6 4 2 5 4 6 4 5 3 3 4 3 2 2 3 5 6 4 4 4 4 6 8 10 11 11 13 13 16 9 7 9 8 9 9 8 3 13 16 13 10 9 8 7 6 7 8 8 9 7 7
4 7 8 6 7 7 8 9 10 11 12 12 13 13 14 15 15 15 14 13 11 9 9 7 5 3 4 5 7 6 2 3 1 2 4 3 2 2 5 4 1 4 4 5 3 1 4 3 3 0 4 3 3 5 3 7 2 3 4 6 12 11 12 12 13 13 6 7 4 3 1 6 8 5 15 14 13 10 8 10 10 9 9 8 7 8 7 5
4 6 6 6 7 7 8 9 10 12 12 12 13 13 14 14 15 13 11 9 6 5 3 5 3 3 2 5 8 2 3 1 2 4 3 3 3 2 3 2 4 4 4 3 3 4 4 4 3 3 4 6 6 5 0 1 2 3 4 6 12 10 8 11 11 9 10 1 8 7 2 2 7 8 5 4 1 1 4 6 9 10 11 11 9 7 6 5
3 6 6 5 5 4 7 8 10 11 12 12 13 14 14 14 13 9 8 8 7 6 2 3 2 3 2 6 2 3 4 2 3 3 3 3 4 1 1 2 1 2 3 2 2 3 3 3 3 3 4 5 3 3 4 3 2 4 5 3 6 7 5 6 2 5 3 2 7 4 4 3 7 10 6 3 5 6 6 7 10 11 11 11 7 5 5 6
3 6 5 7 7 6 6 7 11 12 12 13 14 15 15 12 7 6 5 9 4 2 4 2 2 2 3 4 4 1 5 3 3 2 2 3 3 1 1 2 2 1 1 3 1 1 1 1 1 1 3 2 5 4 5 3 3 6 5 4 3 6 4 8 3 7 3 1 3 5 4 8 7 6 8 7 7 9 9 12 14 14 12 10 5 5 4 3
8 7 6 8 8 7 8 9 10 13 13 13 14 15 10 5 4 3 4 5 5 6 4 3 4 3 4 7 1 2 1 1 3 4 2 4 1 1 4 3 2 1 1 1 1 0 0 1 2 0 3 0 1 3 5 3 4 6 7 5 7 4 5 4 3 7 6 3 3 8 5 3 4 4 7 12 10 11 12 14 15 14 11 8 5 4 3 4
8 8 8 8 7 7 8 9 11 12 12 11 14 11 2 0 3 3 4 1 3 3 3 1 4 4 4 1 2 1 3 1 2 1 1 1 2 4 4 3 2 2 1 2 1 1 2 2 2 0 1 4 2 2 3 4 6 5 6 7 5 5 3 4 2 2 4 6 3 7 6 5 6 7 11 11 9 8 10 15 15 9 7 5 4 3 4 14
9 10 10 8 9 8 8 9 12 12 12 14 14 8 3 5 2 1 2 3 2 3 5 4 4 1 6 3 5 2 2 4 2 3 2 1 1 1 3 2 3 3 3 3 1 3 3 2 3 3 1 5 4 3 4 6 5 3 4 7 7 5 4 8 6 1 1 3 5 5 9 7 6 5 5 7 12 14 14 14 11 9 5 6 4 7 14 14
10 11 10 9 7 7 9 9 12 12 14 19 15 1 4 2 2 3 3 3 2 1 1 3 3 5 1 1 4 6 2 3 4 2 2 3 1 2 1 1 3 6 3 3 3 5 2 1 1 1 3 6 8 9 9 10 8 9 8 7 8 8 5 7 8 7 7 9 8 5 8 8 5 6 8 10 13 12 14 13 12 7 5 2 7 12 12 12
10 10 8 7 5 7 10 10 11 13 15 13 5 1 2 2 1 2 3 4 6 8 8 2 9 8 10 4 4 2 1 3 3 1 4 1 4 3 3 3 3 3 1 2 4 5 5 4 4 5 7 10 9 10 12 12 11 12 9 7 8 9 7 6 9 8 6 6 3 4 5 5 7 7 10 15 11 10 12 12 11 6 3 9 11 13 12 14
10 8 7 7 6 7 9 10 10 13 13 8 7 5 3 4 3 2 4 7 10 11 12 10 9 9 9 3 4 5 3 3 3 3 2 0 1 6 4 4 3 3 5 6 6 1 1 4 5 8 11 13 12 9 9 9 7 8 6 6 8 4 10 6 8 6 4 0 1 3 6 6 8 13 17 13 8 11 10 6 6 12 11 11 13 12 12 10
7 7 6 6 6 7 8 9 10 12 15 6 3 4 2 2 0 0 1 5 3 6 8 10 9 11 7 6 3 1 3 1 4 3 1 1 4 5 6 5 7 5 6 3 5 1 2 6 8 12 12 11 9 9 8 7 6 6 6 4 5 6 8 9 11 7 0 1 4 4 4 6 10 17 17 10 8 5 6 11 8 11 11 10 10 10 11 11
8 7 7 6 6 7 8 8 7 9 7 4 2 3 2 1 0 0 1 3 9 9 9 10 11 12 10 4 2 3 2 7 5 6 5 2 5 4 5 5 5 6 2 8 5 4 5 5 17 13 9 9 9 8 7 7 4 4 5 4 6 5 4 4 1 2 0 1 4 5 9 7 11 15 15 11 7 6 10 15 12 10 13 13 11 10 10 10
8 7 6 6 5 6 7 8 8 6 3 3 3 3 2 1 1 2 1 3 5 5 5 2 2 3 1 2 2 1 6 3 4 7 3 4 6 4 1 6 5 4 6 9 9 8 9 5 2 4 8 8 8 5 5 4 6 3 5 5 7 7 5 6 4 7 5 7 6 6 5 5 10 8 4 3 2 11 11 12 12 11 10 9 10 12 10 10
8 6 5 5 4 2 4 5 3 2 2 2 1 2 2 2 2 2 1 4 3 6 2 0 1 1 1 2 0 2 2 4 2 3 3 1 3 4 5 3 3 6 6 7 9 10 10 7 6 5 4 3 3 4 7 4 6 5 6 8 9 7 4 3 5 6 3 3 2 3 4 3 2 5 11 13 1 8 7 12 7 11 9 9 11 9 7 7
9 9 8 5 3 5 1 2 1 1 2 1 3 2 2 1 2 1 1 2 6 2 3 5 0 3 0 3 2 2 3 3 3 2 2 2 1 2 2 3 3 5 5 3 7 4 1 2 1 1 3 3 2 5 6 1 5 2 3 2 2 2 1 2 3 3 2 1 2 2 0 7 2 9 8 8 8 8 7 9 7 7 9 9 9 8 7 7
11 9 9 8 7 6 2 1 0 2 3 3 1 2 1 1 1 0 2 3 5 2 4 2 1 1 1 2 2 0 3 2 1 1 1 2 2 1 2 2 2 2 0 0 3 3 4 3 5 2 1 3 3 6 5 8 3 4 0 3 3 1 1 1 1 2 5 3 5 5 4 7 5 5 9 8 12 9 8 8 7 7 8 9 9 8 7 7
9 9 8 9 10 10 1 1 3 3 2 2 2 2 2 0 1 1 1 4 3 1 2 1 1 1 1 2 1 2 2 4 3 1 2 2 1 2 1 5 3 2 3 2 4 1 0 2 1 2 3 3 5 5 1 3 4 1 0 3 1 1 1 1 3 4 3 4 6 6 5 1 5 4 6 7 10 7 7 7 7 8 7 9 9 9 7 7
6 4 3 6 6 5 3 1 2 2 2 2 2 3 2 1 1 0 0 4 1 0 2 3 2 1 2 1 3 2 2 2 1 2 0 1 0 1 2 4 3 5 1 5 4 0 2 2 2 3 4 4 2 1 2 1 3 1 2 0 0 1 2 4 3 3 3 1 7 3 6 4 8 5 6 4 7 7 7 8 8 8 9 7 8 7 7 5
7 6 5 2 5 3 0 2 3 3 3 3 3 2 3 1 0 2 2 6 2 1 1 1 1 4 3 5 3 4 3 2 2 3 3 1 3 0 2 2 1 2 3 3 5 8 1 2 2 1 4 1 2 1 2 3 1 0 0 1 3 3 5 2 2 1 1 3 8 10 11 9 4 4 1 3 4 9 10 6 6 8 8 9 8 8 5 5
7 5 4 5 3 1 4 3 3 2 5 4 4 3 1 0 3 3 9 2 2 1 1 1 2 1 5 4 2 2 2 3 4 4 3 1 3 2 1 1 1 2 1 2 6 6 2 1 1 3 2 2 3 2 3 0 1 0 0 1 4 7 2 0 1 3 0 5 3 4 7 12 5 4 4 3 5 13 12 13 11 9 8 8 7 7 6 5
6 5 3 3 1 1 4 1 3 1 4 6 4 1 1 4 1 9 2 2 2 2 2 2 2 2 3 3 0 3 3 2 2 2 2 4 3 4 4 2 3 1 2 4 3 3 2 8 3 2 4 4 1 0 0 1 1 1 0 1 0 3 0 2 3 1 4 6 1 4 4 2 6 3 8 4 8 2 5 10 12 12 11 9 8 6 5 6
5 3 3 3 1 1 2 2 4 4 5 3 3 1 4 4 8 6 0 5 1 1 2 3 1 3 2 0 2 2 3 1 1 1 3 1 0 4 6 7 4 2 3 1 4 3 3 2 5 3 3 3 3 4 2 2 2 3 3 3 1 2 1 3 3 2 3 0 2 3 5 1 2 4 4 7 7 8 12 12 10 11 11 9 7 6 7 6
4 1 2 1 1 2 3 3 4 5 5 3 3 2 2 4 5 3 8 6 2 1 4 2 1 2 0 2 2 3 1 0 3 1 1 2 3 2 4 8 8 1 2 2 1 0 4 3 2 4 2 5 6 7 2 0 7 8 3 7 6 4 1 4 2 4 4 4 0 1 4 4 2 3 3 10 7 11 11 12 11 10 9 8 7 8 6 3
0 1 1 2 2 2 5 5 6 4 2 4 3 4 7 6 1 3 3 3 1 2 2 1 2 1 2 1 2 1 1 1 2 3 1 3 3 3 2 2 5 3 0 2 2 1 4 5 1 1 1 3 6 3 1 1 1 3 2 1 1 4 1 8 3 3 3 5 6 2 4 2 3 3 7 6 10 11 9 10 9 9 8 7 7 6 4 3
1 1 0 2 3 4 6 6 5 2 3 5 4 5 11 3 2 2 1 2 2 3 2 1 1 1 3 2 2 4 2 2 3 2 3 4 2 3 2 1 3 8 5 5 2 3 1 5 4 2 0 3 3 1 0 1 1 1 3 2 2 1 1 3 4 4 4 4 11 5 5 7 0 5 6 8 10 9 8 8 8 8 6 7 6 4 3 1
2 0 0 1 1 6 6 7 6 4 3 6 4 9 5 2 5 3 1 2 1 1 3 3 3 6 2 4 5 5 3 2 2 2 1 1 3 6 2 2 4 4 4 4 3 3 4 3 1 4 3 0 0 1 1 2 0 5 1 4 2 1 1 1 4 2 5 8 7 4 8 7 3 5 5 7 10 6 7 7 8 7 5 5 4 3 2 3
2 1 2 2 4 7 6 7 7 2 4 6 12 9 2 4 4 5 2 0 0 1 0 4 2 2 3 4 2 6 2 2 1 3 2 3 3 3 2 2 5 3 1 4 3 3 2 5 5 3 1 0 0 0 2 1 2 5 3 1 1 2 4 2 1 4 6 7 5 4 9 9 8 7 4 4 7 7 8 7 7 7 5 5 4 4 4 3
2 1 2 4 8 9 6 8 5 4 4 9 8 8 3 3 3 2 4 3 1 1 1 2 1 2 2 2 1 3 5 1 4 3 2 3 3 4 4 2 1 3 2 3 2 1 1 2 2 1 2 1 1 1 2 0 1 2 0 3 2 2 4 4 3 2 2 8 5 5 6 5 4 2 3 5 8 8 9 6 5 7 6 5 4 4 3 2
3 2 4 2 6 8 7 7 5 4 6 11 6 6 2 1 3 4 2 1 2 1 2 2 1 3 1 2 2 2 2 4 3 4 2 1 1 5 4 7 2 0 3 2 1 1 1 0 4 1 1 1 3 3 4 2 2 2 1 1 0 1 1 1 2 3 5 5 5 5 6 4 2 4 4 5 6 6 7 7 5 4 4 4 4 3 3 3
1 1 1 3 6 8 9 5 5 9 9 7 5 2 1 4 2 2 4 4 1 2 3 1 1 4 3 3 7 3 3 2 2 4 3 4 4 4 3 2 3 2 1 2 0 0 1 2 6 3 4 3 4 0 2 1 3 2 5 4 3 1 3 4 7 2 2 4 6 7 11 4 0 4 4 5 4 7 6 7 5 4 4 4 3 2 3 2
3 3 2 7 8 11 10 11 7 4 4 10 9 6 5 4 1 3 2 1 4 2 2 2 4 6 6 9 7 3 3 3 4 3 3 5 2 4 2 5 3 2 2 0 1 3 2 1 1 4 4 7 8 7 8 7 5 5 4 3 3 4 3 2 9 7 5 5 5 7 9 7 1 3 4 4 5 6 7 7 7 5 5 5 5 5 4 5
4 1 3 3 9 11 8 6 7 7 8 7 3 5 5 3 4 5 7 6 4 6 4 6 9 8 9 8 6 7 6 4 4 6 2 2 3 2 4 3 2 3 2 1 2 1 8 1 1 4 6 8 11 8 3 6 1 3 4 1 0 3 0 2 3 2 0 4 6 3 7 2 2 1 2 5 4 5 4 5 6 5 5 6 6 6 5 5
4 3 3 0 6 9 8 9 9 10 9 5 8 8 8 6 6 6 7 8 6 5 8 5 4 10 5 6 4 6 4 4 3 5 4 4 2 4 4 5 4 1 0 2 1 4 1 4 3 1 2 3 4 4 1 3 5 3 1 2 1 3 3 1 1 1 4 5 7 4 8 3 1 1 1 4 4 4 5 4 6 6 5 5 5 4 4 3
2 3 3 3 5 8 12 5 5 9 11 11 9 11 8 5 6 9 7 7 5 5 3 4 7 2 4 3 4 3 3 6 0 2 3 1 2 1 5 4 5 3 3 1 7 1 1 2 1 2 5 7 7 6 2 1 2 1 2 3 3 3 6 5 4 2 5 3 7 3 5 3 1 2 4 4 4 3 3 5 4 5 5 5 4 4 4 4
6 3 4 1 6 7 6 4 4 4 7 9 11 10 10 10 4 6 8 7 9 7 7 1 2 2 1 1 2 3 3 3 4 2 1 2 2 1 2 7 7 4 2 4 3 1 0 1 2 5 7 9 8 4 2 2 1 3 4 4 6 5 4 4 4 7 10 6 8 11 14 12 11 11 9 5 4 4 5 5 6 5 4 4 4 4 3 2
2 3 5 5 4 8 7 7 8 5 3 5 6 4 11 11 5 1 7 3 6 7 3 5 3 3 3 5 5 5 6 5 6 5 5 2 1 3 3 6 6 4 5 3 1 3 1 2 5 5 6 10 9 11 11 9 10 7 7 8 8 7 5 5 7 11 3 6 13 9 9 9 9 10 8 6 2 4 4 3 4 3 3 4 3 2 1 0
3 3 2 5 6 8 13 9 12 10 8 5 4 3 6 9 10 6 2 3 3 1 3 3 8 9 7 7 5 4 5 7 6 5 4 3 3 3 2 2 3 3 3 1 0 2 1 3 2 2 3 6 5 8 6 6 5 7 9 10 12 11 11 12 10 6 4 8 14 11 13 15 12 11 11 10 9 12 7 4 3 4 5 4 4 3 4 4
1 2 2 4 2 4 12 6 11 13 12 10 4 5 6 7 7 6 4 3 3 2 4 3 6 9 9 9 6 4 3 1 3 3 1 2 3 2 2 2 1 4 1 1 0 1 1 3 5 3 7 6 9 8 5 6 6 8 11 13 14 15 17 14 10 9 11 10 10 12 11 14 13 14 13 9 3 2 4 4 4 4 3 4 3 3 4 4
2 1 2 1 2 2 2 5 7 12 13 12 8 9 5 5 8 2 2 5 3 4 4 5 5 3 2 2 2 3 0 1 3 3 1 4 2 1 1 1 2 1 1 1 1 3 3 5 7 2 1 5 7 5 3 3 5 9 9 11 13 14 13 9 12 13 11 12 15 15 15 17 11 11 3 2 2 3 3 2 3 2 3 2 1 1 3 3
1 2 2 2 2 2 2 1 7 9 9 10 11 9 4 6 8 4 2 2 3 4 5 8 4 5 1 3 2 1 2 5 4 4 2 3 5 0 4 2 4 2 1 1 0 2 1 3 3 0 3 8 9 5 4 5 7 9 13 17 18 15 13 12 12 6 9 12 12 11 12 11 5 3 2 2 2 2 1 1 2 1 2 1 0 2 2 2
2 2 1 3 1 4 5 3 3 5 9 10 8 7 7 7 6 3 3 2 4 4 3 6 7 5 1 3 1 3 5 6 5 4 4 3 1 0 1 0 1 4 2 3 2 2 3 1 2 2 5 9 12 6 2 1 4 9 16 20 15 14 15 13 12 13 13 12 13 12 12 6 2 3 2 1 3 0 2 1 3 2 1 1 2 4 3 2
Wind_Direction
23 16 9 6 1 358 357 356 354 355 354 353 350 351 350 354 350 348 348 347 347 346 344 341 343 343 340 341 340 334 328 305 297 261 238 251 132 121 100 119 140 151 161 169 192 160 182 205 213 140 207 99 169 260 115 200 256 160 204 197 256 243 268 343 327 351 9 329 315 267 318 329 297 296 172 15 283 251 264 268 269 252 248 239 238 242 149 153
17 13 6 356 355 351 350 352 352 349 352 349 348 345 346 345 345 342 343 343 344 342 341 341 338 339 340 337 338 335 325 275 284 275 260 88 119 117 117 130 142 159 156 226 184 206 218 183 212 161 206 239 147 178 139 269 144 188 256 230 243 261 279 337 312 314 359 319 330 316 317 336 312 355 243 287 276 288 296 278 293 289 265 242 237 234 155 170
358 352 357 353 345 344 348 346 347 351 346 345 346 343 342 340 340 340 341 340 340 342 339 337 339 337 335 336 335 332 336 296 278 284 51 336 109 112 132 139 157 162 177 191 195 243 258 321 196 173 207 270 159 166 158 195 157 221 228 252 258 263 275 272 284 294 295 292 287 314 343 350 311 312 307 262 273 268 264 280 290 277 281 283 291 226 218 181
351 345 344 345 342 342 345 344 343 346 346 342 341 343 339 338 338 341 339 339 339 340 339 337 335 336 331 329 334 323 286 283 279 80 60 82 98 110 139 153 167 181 238 292 298 258 280 322 298 186 278 240 264 176 156 179 121 182 190 228 248 281 323 316 313 311 322 8 348 328 337 309 285 270 288 289 294 250 252 250 254 267 283 313 321 321 304 236
346 345 339 340 342 340 338 340 340 344 343 341 340 337 343 336 338 336 336 334 336 336 336 335 334 329 330 324 320 305 328 299 95 1 106 141 117 125 139 160 174 187 222 274 292 270 271 267 252 248 225 287 254 243 224 213 184 321 239 248 268 302 285 291 302 339 38 29 301 290 296 278 299 283 264 247 247 254 252 274 285 287 290 294 303 303 299 289
338 341 337 335 335 337 333 337 341 339 339 339 339 340 335 336 331 330 330 331 330 331 332 331 330 330 322 320 312 273 324 311 206 136 39 125 122 122 145 161 180 211 214 254 250 217 234 229 246 221 242 222 254 259 232 213 169 239 236 244 243 249 255 266 270 32 48 323 298 290 281 310 292 285 277 271 258 261 252 259 264 270 273 273 274 278 279 280
325 332 328 324 324 333 335 332 334 336 336 338 339 336 334 332 330 329 325 329 324 326 326 328 328 326 325 305 252 281 248 270 310 172 122 146 121 121 125 132 161 270 240 241 231 216 212 251 209 251 251 252 252 250 256 270 212 216 256 308 297 301 288 294 293 314 273 274 271 275 304 278 287 283 275 264 265 268 267 269 274 275 275 274 271 260 258 260
321 325 314 309 310 328 335 332 334 336 336 336 335 334 333 331 329 326 326 319 322 318 322 322 328 324 341 316 260 246 211 255 103 161 128 131 127 118 122 140 159 208 227 227 213 222 219 242 241 250 256 256 275 287 325 347 301 260 253 241 255 260 272 280 275 283 280 271 277 282 272 264 264 269 292 271 274 272 269 261 264 266 268 272 266 265 261 253
60 323 305 308 319 339 335 334 333 333 335 334 334 333 332 329 326 324 319 321 316 315 313 320 315 329 312 287 278 291 252 53 330 132 159 145 134 139 155 138 199 188 219 237 245 251 249 235 253 246 279 280 289 304 321 313 253 238 280 325 322 306 309 306 305 280 267 272 229 241 255 267 265 279 266 262 260 261 261 258 251 259 263 256 258 261 262 259
318 324 307 317 336 333 332 334 333 333 333 333 332 330 328 326 322 319 318 314 313 311 307 312 319 316 320 219 258 255 272 216 128 155 165 140 125 143 223 186 173 205 227 226 244 242 228 259 292 57 25 317 281 270 275 243 276 13 327 313 310 295 293 280 271 274 265 262 249 236 256 261 260 282 276 245 254 255 262 263 253 256 265 268 268 268 264 267
314 306 298 323 330 327 329 330 329 328 328 328 327 326 324 320 318 315 314 310 306 300 301 292 321 339 264 200 239 250 120 273 278 80 134 126 138 156 203 239 173 226 227 246 242 256 281 280 15 358 346 265 351 291 251 281 34 350 336 318 290 283 272 269 262 258 256 255 235 232 262 281 278 248 256 269 269 269 278 285 277 261 249 247 258 264 266 263
308 296 308 318 323 325 326 325 326 324 324 324 322 320 318 316 314 313 311 310 304 300 286 280 227 259 292 246 233 233 313 42 132 132 116 170 142 77 0 2 297 234 257 258 235 341 23 32 21 156 238 65 261 314 292 352 347 6 355 299 282 280 277 264 259 261 232 237 144 132 325 293 275 230 246 249 260 267 262 258 254 256 261 268 275 282 285 280
273 286 305 321 322 324 324 326 325 325 325 322 320 316 314 313 311 310 311 308 305 302 299 250 202 257 282 253 232 52 291 111 89 119 111 78 91 57 37 27 0 17 34 353 22 349 352 18 16 289 272 295 294 276 251 318 335 300 249 250 286 285 265 264 250 239 224 194 124 97 270 204 273 275 273 265 158 303 300 301 289 282 285 283 281 287 296 296
249 292 301 312 286 326 341 332 329 327 325 323 320 316 312 311 306 304 300 291 291 285 195 128 215 230 247 254 45 305 5 330 134 150 130 143 142 84 153 53 20 356 40 7 62 357 15 13 7 269 305 285 270 65 299 295 258 255 260 241 265 304 275 282 223 117 163 99 142 121 222 238 273 279 278 321 341 331 310 290 277 272 269 271 279 281 274 279
263 256 251 264 275 283 287 314 332 327 321 320 318 313 311 306 298 298 310 299 226 210 170 181 249 219 202 254 75 71 281 309 184 124 110 188 143 115 170 155 87 58 92 40 59 314 35 355 95 322 261 228 245 293 290 255 241 259 288 238 225 204 259 270 231 140 180 229 213 112 259 242 248 280 326 322 324 305 289 281 279 276 275 282 305 301 296 337
220 236 250 263 265 261 269 278 298 314 316 317 318 312 300 268 270 306 348 342 115 149 156 163 189 244 327 276 164 1 241 199 130 32 28 0 258 313 117 107 118 98 207 90 83 269 310 124 218 290 295 116 199 242 278 310 260 235 220 250 258 236 265 306 269 158 205 104 265 162 224 268 279 289 301 287 272 261 265 269 265 272 280 290 309 305 317 25
236 242 244 249 262 262 271 279 288 295 306 309 316 308 289 22 187 340 352 348 145 168 217 353 141 173 272 76 68 237 148 97 265 138 49 7 3 126 107 123 153 140 84 111 196 140 154 209 121 356 212 261 257 233 279 253 275 253 219 240 230 240 248 241 348 329 125 144 192 223 247 233 253 263 260 276 286 274 266 266 274 285 282 276 274 302 40 56
241 245 253 262 271 282 283 284 287 300 313 314 315 295 280 187 217 286 202 257 182 210 247 239 250 248 242 100 259 150 94 112 120 116 82 38 290 209 166 186 98 143 155 130 106 205 147 209 144 228 205 220 231 242 212 241 224 271 305 300 290 290 311 300 313 251 284 173 228 220 225 244 254 275 290 285 283 280 271 271 278 278 300 308 357 57 63 62
240 246 252 253 274 286 285 285 291 311 319 322 301 49 196 184 227 240 260 161 205 156 203 176 196 170 8 128 108 113 88 120 102 184 159 161 221 251 219 328 160 149 173 198 173 192 146 251 136 315 249 225 217 212 218 233 247 266 274 278 294 296 287 283 279 285 279 280 278 262 273 286 295 291 279 273 261 269 275 277 277 278 265 334 67 68 70 68
240 246 253 262 265 273 282 287 303 313 323 330 337 218 199 222 178 154 225 225 243 265 307 252 213 288 310 273 138 37 88 251 151 199 110 201 141 176 184 198 163 253 192 211 141 211 138 174 174 192 222 234 238 230 230 237 243 257 258 256 268 285 286 279 280 290 293 309 271 281 281 300 285 273 275 268 280 276 275 275 278 286 49 72 76 78 73 66
243 252 249 249 255 269 284 298 309 313 314 311 298 287 356 16 323 306 338 251 240 238 252 261 244 254 263 119 141 151 188 193 267 155 184 167 242 159 181 178 157 213 221 219 141 24 112 206 217 215 228 241 248 265 278 289 305 296 295 297 285 278 280 271 290 295 331 81 294 303 291 286 304 291 272 274 281 272 269 306 18 52 62 68 70 69 67 67
250 256 264 269 268 275 287 297 310 312 308 276 293 335 76 46 357 349 266 298 270 274 267 252 251 260 258 276 116 283 80 274 181 125 148 209 174 207 165 196 173 209 197 162 77 112 188 210 231 228 229 247 261 270 273 274 284 301 297 305 307 276 276 283 270 272 261 116 267 302 308 297 291 279 281 285 266 282 44 76 65 75 67 63 62 66 60 52
238 243 247 252 261 277 296 300 303 317 319 300 291 11 64 101 96 345 273 268 267 251 249 250 244 236 250 85 72 89 249 226 246 155 171 199 132 259 157 191 211 225 219 159 180 181 227 212 235 234 241 248 258 258 266 265 240 246 281 288 259 260 267 305 266 98 176 354 300 292 291 295 281 278 280 271 256 81 80 74 70 68 76 67 61 60 59 58
230 233 238 245 262 276 294 304 308 292 234 306 323 45 50 356 259 230 234 240 295 261 229 244 283 282 275 199 93 286 197 256 238 193 154 172 172 181 198 199 226 229 224 202 215 223 229 246 343 186 225 234 254 271 283 275 273 239 225 235 261 271 259 253 298 345 336 306 274 287 276 265 250 273 299 279 159 80 84 81 75 68 64 72 72 61 55 57
219 220 220 225 239 301 288 334 280 200 67 297 123 80 81 41 358 13 281 278 211 243 41 347 43 43 97 141 191 196 195 237 61 68 163 289 189 109 228 207 226 236 239 236 237 242 256 258 259 224 238 260 272 274 252 238 278 274 245 236 247 261 291 333 347 354 342 307 24 75 327 227 275 313 279 267 104 85 73 87 72 71 64 59 54 56 59 56
208 204 202 186 181 231 107 275 111 54 262 3 77 100 88 69 316 8 296 277 276 165 12 188 14 196 18 168 78 218 10 223 9 15 353 114 306 265 50 244 175 242 241 250 249 246 255 97 49 181 197 194 225 248 253 217 245 247 253 41 12 44 37 316 320 45 310 247 275 136 223 283 219 265 255 261 101 94 77 79 86 75 77 69 63 51 40 45
208 200 186 178 187 182 197 210 341 281 231 135 107 90 92 73 297 344 276 238 274 145 146 349 24 195 24 101 168 125 201 134 206 61 259 9 343 170 280 214 101 298 22 316 34 277 186 193 65 39 158 185 223 246 245 201 195 256 3 342 4 30 36 15 353 210 243 251 260 259 229 253 289 255 259 231 114 112 100 96 85 82 77 78 75 57 36 39
199 191 180 183 193 187 331 310 253 226 61 101 93 84 85 27 356 205 196 305 247 111 124 175 39 273 328 131 339 257 71 129 149 99 30 23 335 129 182 258 239 246 173 122 202 354 99 152 131 166 189 191 216 227 333 163 173 193 291 37 359 60 292 275 238 247 248 319 282 203 183 292 247 243 247 166 113 117 121 112 103 95 77 77 73 68 51 35
59 66 147 182 177 198 333 288 292 279 158 70 80 61 40 46 340 320 3 248 337 134 324 81 300 183 123 160 193 224 145 191 317 123 254 152 46 5 194 253 318 312 135 183 234 279 5 107 209 189 141 211 211 18 337 84 225 144 242 276 243 236 247 219 232 260 309 265 264 182 179 208 276 255 255 189 117 146 137 132 124 107 103 87 81 69 60 30
69 51 27 126 119 113 216 60 237 76 111 89 81 87 65 23 269 183 164 237 60 174 138 110 201 153 173 171 177 165 191 122 85 135 182 188 142 91 222 129 291 329 288 254 242 246 191 258 68 281 211 222 115 110 42 23 83 36 324 304 287 245 235 243 211 241 321 239 252 225 205 184 297 273 240 152 185 164 139 121 115 110 99 94 81 82 63 52
79 68 74 166 165 155 132 222 151 126 109 97 87 63 38 54 218 179 225 188 352 158 96 162 143 122 177 223 157 148 281 142 138 155 133 182 132 229 286 327 64 334 352 327 283 267 204 122 67 249 248 96 126 71 5 10 25 46 40 13 337 295 122 134 253 127 137 270 266 293 192 188 180 275 20 46 105 144 152 155 144 124 104 90 85 69 72 54
63 46 12 167 114 129 182 222 146 83 117 120 100 81 142 223 223 212 217 101 234 186 158 125 86 197 195 75 276 151 170 141 133 206 185 170 158 162 197 194 155 206 260 187 257 81 228 221 205 110 307 149 140 25 1 33 47 83 46 350 29 289 25 273 93 321 211 233 267 9 14 208 239 267 289 36 45 51 125 130 131 121 109 98 89 93 77 55
67 44 87 60 92 203 66 97 130 136 115 109 101 195 192 182 237 159 320 180 268 80 168 41 114 179 155 132 185 91 350 149 47 253 44 331 106 230 194 198 223 198 230 11 347 338 275 68 166 196 46 239 144 144 228 353 207 146 178 169 159 316 276 261 261 225 265 305 289 63 25 268 253 284 350 88 64 60 77 87 98 107 110 103 96 85 67 67
57 55 116 149 121 77 101 121 128 141 121 100 125 153 226 221 231 42 192 208 196 113 67 90 61 30 340 233 132 164 120 162 168 161 127 168 143 242 242 216 222 290 140 356 197 248 319 322 226 152 258 157 189 199 164 202 165 201 207 158 177 192 200 272 248 249 237 231 303 267 26 225 129 232 104 91 82 76 72 78 83 82 84 90 88 76 72 73
60 141 142 162 168 162 130 133 148 172 121 132 151 189 220 228 80 146 230 218 223 78 120 341 127 136 204 238 156 243 190 195 173 128 221 184 213 206 211 222 190 140 114 66 240 66 200 238 163 156 207 160 186 266 354 5 359 214 219 49 352 227 169 247 256 284 301 320 308 240 196 259 322 107 94 85 86 81 80 86 87 90 88 82 75 70 70 51
240 79 340 168 188 147 139 143 154 134 158 177 173 204 222 175 200 139 230 272 182 147 122 63 147 177 223 195 180 171 335 160 160 172 218 189 251 252 183 195 168 169 166 174 181 269 94 249 155 209 116 191 208 27 16 60 186 305 56 197 210 332 63 281 313 261 291 276 253 254 286 281 143 96 104 107 98 89 93 90 89 85 85 81 78 90 103 106
79 42 161 174 169 141 145 145 150 129 179 200 201 230 208 242 226 325 3 47 339 53 136 182 218 170 192 223 180 179 175 94 233 150 253 136 287 213 211 233 105 176 193 155 301 195 216 265 132 127 241 253 224 347 352 41 158 63 221 236 298 181 88 185 265 243 243 244 258 244 271 279 308 276 139 125 107 119 102 108 104 99 95 99 112 135 121 94
101 76 301 267 180 145 138 141 136 141 198 212 218 221 128 220 166 230 141 126 82 2 104 189 251 80 224 218 206 132 175 119 158 114 240 150 261 100 150 147 5 24 33 33 146 285 73 297 250 257 156 198 265 17 328 109 28 184 223 30 79 272 300 245 140 256 251 246 266 214 251 256 250 248 139 180 129 129 123 122 126 125 125 134 144 120 106 85
119 120 286 208 150 140 140 142 129 150 211 222 229 231 222 231 5 25 39 35 343 56 224 241 221 224 230 276 311 96 145 150 151 179 84 192 198 197 190 60 67 358 33 113 83 9 8 212 302 358 77 157 48 107 261 298 339 116 130 350 185 102 206 261 227 222 223 267 283 247 233 252 238 38 357 110 124 138 139 140 131 135 137 134 132 130 129 135
133 80 234 75 150 133 140 138 129 178 225 237 221 232 62 4 232 260 112 104 315 211 235 277 238 283 265 282 16 257 196 190 216 258 203 320 261 36 41 20 116 19 47 8 117 57 296 231 259 137 298 48 341 166 225 198 231 356 52 281 347 212 182 137 331 261 239 265 241 286 261 265 334 353 48 101 126 142 139 125 124 115 114 121 130 147 143 166
265 285 201 147 150 130 133 138 177 204 218 234 242 272 96 226 171 201 104 135 149 99 133 301 235 225 253 287 268 246 275 268 237 239 209 258 228 287 32 33 343 81 351 17 128 224 171 243 232 350 337 214 227 289 113 45 300 256 151 222 201 189 288 264 266 194 195 224 251 244 258 243 353 330 83 85 81 94 111 129 126 140 143 150 148 145 154 161
174 184 165 153 155 158 150 171 209 191 216 220 212 188 230 195 254 178 137 164 167 197 151 214 239 251 235 241 245 238 237 229 214 211 218 227 207 228 188 233 60 67 64 37 96 354 113 97 90 245 233 251 266 278 296 301 262 245 163 234 257 264 152 169 262 254 267 243 243 234 265 239 130 295 87 100 103 117 130 137 147 155 163 160 164 170 182 186
208 221 28 218 173 179 166 209 194 191 217 228 227 229 205 225 216 177 180 165 198 199 197 195 206 217 221 234 221 237 226 253 191 223 196 212 246 28 164 115 132 114 63 279 83 328 64 116 174 256 244 261 264 266 40 26 43 290 264 310 245 245 108 206 239 92 217 331 306 282 250 247 231 24 86 105 115 114 129 142 156 166 172 176 170 182 190 175
204 146 154 301 197 210 188 191 201 206 223 236 211 231 195 214 194 206 212 180 172 185 209 205 225 220 255 207 218 240 215 265 248 198 272 214 180 64 34 59 8 84 86 266 121 254 97 283 131 290 311 300 302 296 38 8 38 35 357 330 32 311 290 258 10 207 242 187 251 255 259 263 213 182 281 126 125 143 153 165 166 165 180 182 173 172 161 149
186 88 75 148 214 224 211 207 214 199 211 213 212 224 222 221 215 219 204 210 194 212 209 220 221 204 223 217 249 247 226 237 321 258 125 340 102 58 35 48 16 89 44 12 94 228 137 220 103 219 248 262 263 255 260 17 50 174 251 272 287 247 274 309 288 244 253 203 195 247 273 225 35 261 203 168 168 162 177 188 197 174 174 176 169 153 156 145
190 183 159 163 195 234 261 312 338 258 215 207 225 226 222 230 211 202 207 231 206 216 225 285 39 54 306 279 219 216 245 252 184 250 104 209 118 46 85 62 60 96 58 74 49 12 132 284 177 206 225 243 251 285 300 319 228 276 287 286 278 277 260 234 261 262 260 284 288 256 264 285 284 280 285 281 159 172 211 215 203 192 175 157 142 141 147 158
305 208 154 181 165 224 236 224 229 232 236 203 221 182 221 220 212 241 189 219 207 218 200 207 195 202 219 217 230 229 207 222 228 208 225 190 159 125 114 107 88 82 137 82 230 73 155 230 231 227 235 247 259 267 275 277 274 270 269 269 275 268 250 246 232 256 344 341 265 259 271 282 272 288 300 313 312 242 249 237 199 183 155 137 141 129 131 116
168 260 189 180 191 188 207 217 216 224 241 270 266 223 227 213 211 215 150 212 58 325 192 211 214 213 221 213 200 223 210 222 205 222 212 208 149 133 101 127 105 197 174 75 96 119 139 234 260 278 256 267 271 274 283 295 288 281 277 279 277 274 268 256 254 255 246 239 265 280 284 279 280 278 288 291 298 294 294 259 128 121 120 124 133 161 198 220
264 355 291 301 238 199 210 197 192 209 224 230 257 252 247 231 227 214 167 169 147 258 201 220 213 211 220 228 227 226 207 181 262 31 109 44 71 76 95 85 50 133 193 67 11 193 110 263 247 232 255 259 258 261 275 279 284 281 273 267 266 265 262 265 276 266 249 258 267 272 272 275 282 285 289 297 316 49 72 76 100 108 149 145 173 196 220 232
195 238 227 54 359 26 75 155 184 194 221 218 229 226 237 235 238 182 47 157 176 209 210 230 223 60 85 71 185 176 247 96 153 146 38 107 356 126 156 220 132 23 108 139 136 291 120 258 107 40 307 274 272 272 279 270 267 269 268 266 260 260 269 274 272 270 285 277 270 274 276 274 270 278 295 94 61 80 87 107 99 160 140 139 169 222 241 239
286 58 331 320 183 197 48 163 187 192 210 216 230 228 230 221 245 233 150 12 178 189 184 203 183 109 61 149 148 132 113 145 116 137 146 141 166 323 112 300 78 129 75 30 10 296 26 261 353 75 293 280 277 276 268 253 259 259 265 258 254 257 268 256 257 258 257 263 271 274 266 267 285 88 84 122 107 102 81 78 96 69 97 99 270 271 287 300
71 309 223 284 294 175 157 179 188 180 222 216 220 217 223 211 233 206 235 101 58 40 63 106 119 123 182 119 135 81 74 98 92 85 91 74 62 83 67 99 141 156 203 166 202 144 205 152 155 229 249 260 270 286 286 264 284 275 248 248 258 258 251 261 259 254 250 261 266 263 262 260 203 158 111 223 94 342 75 38 63 350 315 161 235 250 257 275